Theta_e
349 347 347 349 350 349 349 347 346 346 346 346 345 343 342 346 349 349 351 357 354 354 350 348 346 343 339 335 333 331 328 326 325 325 327 328 328 328 327 326 326 327 327
348 346 345 350 349 350 349 348 345 344 343 344 345 346 344 346 348 349 351 355 353 351 351 349 346 343 339 335 333 331 328 325 325 327 328 328 328 326 325 326 326 327 327
350 348 348 348 349 350 351 349 347 346 346 346 346 345 347 349 350 349 350 352 352 348 349 348 346 344 339 336 333 330 328 326 326 328 327 326 326 325 324 325 326 327 326
354 348 347 348 349 350 348 347 346 346 346 347 347 347 348 350 352 350 348 347 349 342 347 347 346 342 338 336 332 329 328 326 327 327 326 325 324 323 324 324 324 324 324
355 351 350 347 349 347 347 345 346 347 345 348 348 348 350 350 352 348 346 346 343 344 342 342 344 341 336 334 329 327 327 326 326 325 324 323 322 322 323 323 323 323 324
355 354 352 350 348 345 344 345 345 347 346 347 344 346 350 351 351 348 344 344 344 341 341 338 340 339 334 330 330 326 325 325 324 323 322 321 321 321 321 323 322 322 322
352 352 351 351 349 343 343 347 345 345 345 347 345 343 339 337 337 336 340 336 333 335 336 336 336 337 331 328 325 323 322 322 322 321 319 318 319 320 321 321 321 321 321
353 351 350 350 350 347 345 341 345 340 343 347 341 344 333 329 325 324 325 327 328 330 331 332 332 330 330 328 322 319 320 320 320 320 318 317 318 319 321 320 320 320 320
352 352 350 349 349 349 345 345 340 341 338 345 347 342 333 329 325 320 318 322 322 325 324 324 324 323 323 322 320 318 317 317 318 318 317 317 317 319 319 318 319 319 319
348 350 349 347 349 348 348 346 347 345 348 342 340 336 333 334 325 314 316 317 319 318 319 318 318 318 318 319 316 314 314 314 315 315 316 315 316 317 317 317 318 318 319
348 346 348 345 345 346 344 344 347 345 344 333 332 325 325 326 328 318 311 311 311 313 312 315 316 316 316 317 317 315 311 312 313 313 313 313 314 315 316 316 317 317 318
341 345 345 346 345 342 342 344 346 345 346 345 340 331 327 324 323 321 316 310 310 311 310 312 314 314 314 313 312 311 310 310 311 311 312 311 311 312 314 314 315 316 317
337 342 344 345 344 346 345 341 340 340 342 341 339 330 331 327 323 317 314 309 309 310 306 309 309 313 309 313 314 311 308 309 309 309 311 310 310 310 311 311 312 313 314
338 342 342 344 344 343 343 341 334 331 328 324 321 317 317 316 313 313 311 306 302 302 305 307 308 309 311 312 310 309 311 307 308 308 309 310 310 309 308 308 309 311 310
340 341 339 337 338 335 330 329 321 319 323 322 320 316 316 313 314 313 312 313 309 301 302 305 308 307 312 313 310 310 310 308 307 307 308 308 306 306 306 306 307 309 308
331 335 334 334 331 327 323 321 320 320 317 316 314 314 313 311 308 309 307 307 309 307 303 306 305 308 311 310 308 309 308 306 305 306 306 305 305 305 306 306 307 307 307
329 330 327 326 324 321 319 317 315 313 312 311 313 310 312 308 305 305 306 305 305 309 305 302 305 307 307 307 308 309 309 309 310 304 305 305 304 304 304 305 305 306 305
330 327 323 321 319 317 315 313 313 311 309 307 307 305 304 304 302 303 304 304 304 307 306 302 305 305 307 307 308 308 308 308 308 304 304 304 304 304 303 304 304 304 303
324 322 319 315 314 313 312 311 311 309 307 306 306 304 302 302 301 302 302 302 303 305 306 305 303 305 306 306 308 310 309 310 307 305 307 305 303 303 302 303 303 303 302
316 314 312 309 308 307 307 307 307 306 306 305 304 304 303 301 301 301 301 302 303 304 304 304 303 303 304 307 308 305 305 307 307 307 307 305 303 303 302 303 303 303 301
309 308 306 304 303 303 305 305 305 303 302 302 303 303 304 304 305 302 300 300 303 303 303 302 302 302 303 304 304 305 304 305 307 307 306 307 306 306 303 303 303 302 301
303 303 302 300 299 301 301 302 303 303 305 304 303 303 304 304 303 303 302 303 306 306 305 304 304 302 304 305 305 304 303 302 300 307 305 305 306 303 300 301 301 300 300
300 299 298 298 298 299 299 300 301 301 301 302 302 301 301 302 303 302 303 302 301 301 304 309 306 305 305 306 306 305 305 304 302 304 304 300 303 300 299 300 301 300 299
297 297 297 298 298 298 298 298 300 300 300 301 302 302 304 304 303 305 306 306 306 307 308 308 309 308 307 308 308 306 306 306 306 304 303 296 300 298 299 300 301 300 299
297 297 298 297 297 297 297 297 299 299 300 301 304 306 306 303 296 298 306 305 306 307 303 301 300 298 297 298 302 306 303 302 300 300 301 298 298 297 299 298 300 300 299
296 297 296 297 298 297 296 296 299 302 301 301 303 303 297 299 295 296 305 305 303 303 306 308 309 304 305 303 303 307 305 301 299 297 300 298 296 297 295 299 299 298 298
Wind_Speed
7 7 7 7 8 8 7 8 8 8 8 8 7 8 8 7 6 4 4 12 10 10 11 11 11 10 9 8 7 6 4 3 0 3 8 9 14 15 19 22 23 23 24
6 6 7 9 9 8 8 8 8 8 7 7 8 8 8 7 6 7 6 8 11 11 10 12 10 9 9 9 8 6 4 3 3 6 9 11 16 20 22 22 24 24 24
9 8 7 9 8 7 9 8 8 8 8 7 9 8 7 8 7 9 8 7 9 10 9 9 9 9 8 9 8 6 5 4 4 8 11 14 18 20 23 22 22 20 18
13 8 7 8 8 7 8 8 8 7 7 7 7 7 6 6 6 7 8 6 6 4 7 7 7 8 8 9 7 6 3 2 6 11 14 17 19 20 19 20 20 20 19
13 11 9 6 7 8 8 9 8 8 7 7 7 6 5 5 5 5 7 6 4 5 5 6 5 7 7 8 6 4 2 4 8 12 15 18 18 19 19 19 18 19 20
12 11 10 10 8 6 8 9 10 8 9 7 6 4 2 0 1 3 5 6 6 6 5 2 5 7 8 7 7 3 3 8 10 14 16 17 17 17 18 19 18 20 20
10 11 10 10 10 8 10 11 10 10 9 8 6 4 4 4 4 3 2 3 2 3 5 4 4 5 8 11 8 6 6 9 11 13 14 16 16 17 18 18 19 21 21
10 10 12 11 13 11 11 10 11 10 9 8 8 6 5 4 3 4 3 3 5 4 6 5 7 6 5 4 6 7 9 10 12 13 15 15 15 17 17 19 20 20 21
10 12 13 12 12 12 11 11 8 11 11 9 12 6 5 7 6 2 6 4 2 7 6 7 8 7 6 4 1 4 10 10 12 13 14 15 16 18 19 20 21 21 21
11 11 11 11 10 8 11 11 10 10 11 10 4 5 2 2 4 5 4 5 4 7 5 6 6 6 5 3 5 7 10 9 10 12 14 16 17 18 19 20 20 20 22
10 9 9 10 10 8 8 10 11 11 11 6 5 3 4 3 3 3 5 5 4 3 4 5 4 4 4 4 3 7 9 9 10 11 12 14 17 19 18 19 20 21 21
6 8 8 8 9 8 9 9 11 13 11 10 10 7 6 6 7 5 4 6 7 5 3 3 3 3 3 3 4 6 7 8 10 11 11 12 15 19 20 20 20 21 21
7 6 6 8 8 10 11 9 9 11 12 12 11 9 7 6 5 3 4 5 5 5 3 2 3 2 3 3 3 7 5 7 10 10 11 10 13 17 19 19 20 21 22
7 8 8 9 11 10 7 8 4 4 4 4 8 5 3 3 3 3 5 7 4 3 2 3 3 2 2 3 3 4 4 5 8 10 12 11 14 16 17 18 19 21 22
7 8 9 10 6 4 4 7 5 6 6 8 9 8 7 6 6 4 4 3 6 5 6 5 4 2 2 2 6 6 6 7 7 8 11 13 13 15 17 17 18 21 21
8 9 10 9 4 4 6 4 6 7 8 6 6 9 10 7 6 4 4 3 1 4 5 2 3 3 2 2 7 6 6 7 4 9 9 10 11 13 17 17 19 20 21
8 8 8 6 2 3 6 7 6 8 8 9 10 11 11 8 5 4 4 4 4 1 7 4 3 5 4 5 6 5 3 4 2 5 7 8 10 12 17 18 19 19 21
7 6 4 3 1 3 4 5 8 9 10 9 9 10 10 6 7 5 4 5 6 4 5 10 5 4 4 6 5 4 3 2 3 5 8 10 13 14 14 19 19 21 22
5 4 6 6 7 6 5 6 7 8 9 9 9 9 10 7 5 5 7 7 7 6 5 7 7 3 4 4 2 1 2 2 3 5 7 3 10 11 11 16 19 20 20
6 8 9 10 10 10 9 9 8 10 11 7 9 8 7 7 8 7 8 9 8 8 8 7 7 6 4 4 3 4 4 4 4 6 6 2 2 6 12 16 20 22 22
9 10 11 13 14 12 9 10 11 12 12 10 8 10 8 12 16 11 6 7 8 9 8 8 7 5 5 5 6 5 5 5 4 5 8 6 7 6 11 14 16 21 22
11 13 13 13 14 11 23 23 15 11 10 13 10 10 10 15 16 18 19 15 11 9 8 7 7 7 6 5 5 5 5 5 5 8 10 6 6 7 7 9 19 20 22
12 14 13 14 15 14 22 21 20 10 11 10 7 8 8 7 11 12 17 18 15 14 11 7 8 6 6 7 6 7 6 5 6 8 10 5 7 7 6 7 20 20 21
13 11 13 13 14 13 19 17 16 10 7 9 8 6 9 10 8 9 12 12 10 8 6 5 6 6 5 5 5 5 4 5 4 6 9 3 6 4 4 6 19 20 20
13 12 11 13 13 12 16 14 9 6 7 8 10 10 11 9 5 8 9 10 9 7 6 5 6 6 6 7 9 7 9 7 6 5 9 4 5 3 3 7 9 20 19
13 10 13 13 16 11 13 11 7 5 8 7 11 9 13 9 10 10 8 7 9 5 4 5 6 7 5 7 10 11 10 9 8 5 9 6 6 4 1 5 8 9 8
Wind_Direction
217 229 230 238 237 229 227 234 240 246 251 252 255 256 258 259 264 244 225 196 189 179 184 180 172 165 160 162 166 166 159 159 195 333 331 324 324 326 328 324 318 311 307
206 202 229 237 241 236 237 243 243 251 253 260 259 253 254 260 256 230 211 196 186 182 190 184 181 177 175 175 179 188 187 216 264 309 323 319 322 327 326 323 315 312 316
204 204 224 235 240 242 248 245 250 246 254 254 256 251 252 255 241 220 211 212 184 183 198 197 182 200 190 191 192 198 215 233 296 313 326 325 326 328 326 317 313 327 321
226 213 223 235 233 228 241 242 241 240 247 250 251 254 256 252 237 219 209 197 195 198 184 206 186 208 204 196 198 200 130 260 320 328 331 329 332 327 322 318 321 319 322
231 231 231 230 224 234 235 238 238 240 243 246 246 254 242 238 227 206 194 201 184 203 194 148 186 188 188 190 188 189 214 347 337 336 333 335 331 324 326 322 330 328 323
235 234 244 234 222 218 241 236 236 237 249 254 255 216 241 221 214 192 185 183 204 201 193 156 170 156 152 147 122 100 13 359 343 337 341 336 331 331 324 329 333 328 325
237 234 241 241 232 223 218 228 228 229 241 237 213 182 114 83 75 63 75 111 151 145 185 144 171 161 120 110 86 57 21 356 347 344 340 335 331 331 326 333 332 328 329
241 240 242 240 234 231 226 228 220 223 232 222 229 229 206 160 101 53 50 98 107 125 115 131 121 125 136 115 71 40 13 360 346 341 337 336 341 332 337 338 331 328 330
235 234 240 244 247 239 238 228 218 217 231 217 221 238 228 228 149 106 59 60 89 110 108 111 110 109 103 102 76 20 6 353 346 346 345 348 342 340 341 337 333 331 331
228 230 239 244 240 240 243 235 225 219 215 206 208 214 348 1 181 171 130 99 74 96 103 111 110 93 80 59 46 38 359 353 346 350 352 349 344 341 338 336 332 328 330
229 232 237 246 240 233 240 240 222 210 215 191 169 187 150 170 176 172 151 152 109 117 108 99 100 81 64 23 4 40 1 343 350 353 346 349 349 339 337 331 331 333 334
246 244 251 247 250 235 232 233 243 225 223 224 206 187 178 174 184 167 138 154 169 134 109 100 93 70 40 5 9 357 3 351 346 350 346 347 346 339 334 332 332 335 334
262 277 284 274 264 253 236 219 234 245 230 214 204 186 191 184 154 145 106 135 151 133 148 144 100 62 28 346 354 356 16 349 352 338 339 336 337 340 338 336 334 336 335
297 311 307 301 290 275 253 231 200 180 148 133 136 115 128 126 104 152 144 152 131 111 127 147 188 51 360 11 359 327 347 353 335 340 336 340 347 339 336 337 339 337 335
307 314 319 308 291 235 202 175 149 137 153 157 145 142 143 133 117 99 108 125 119 139 188 180 138 119 19 18 24 7 342 3 332 340 358 1 349 345 341 341 341 337 340
330 334 329 316 254 178 160 164 149 150 144 136 132 134 130 122 101 101 104 88 106 149 133 99 125 130 47 22 43 1 5 280 27 353 0 357 353 350 351 349 342 345 344
336 330 330 311 270 179 164 149 144 133 128 135 128 128 121 118 103 98 101 130 120 147 114 114 144 140 104 31 19 355 341 324 61 12 1 350 346 350 1 354 345 349 348
333 338 351 328 67 125 137 141 153 139 140 122 119 110 106 100 97 128 111 89 90 74 115 133 122 145 68 25 1 334 336 3 4 53 326 318 329 330 351 356 351 357 357
342 12 38 36 40 43 71 90 104 106 101 113 113 111 109 111 109 94 99 91 83 81 108 127 118 90 68 18 341 21 349 318 311 346 360 14 13 5 3 1 358 4 359
31 43 49 50 55 46 50 61 74 84 84 76 90 101 109 111 105 89 80 89 102 104 102 99 90 88 62 40 4 1 2 3 359 0 360 128 284 27 18 2 4 8 1
48 54 59 54 52 46 39 61 68 73 81 82 69 82 85 94 92 98 103 100 106 108 104 103 95 82 62 39 18 359 355 359 70 358 345 21 348 23 19 12 9 10 3
57 59 58 61 58 54 56 56 56 59 72 72 64 61 66 79 85 93 88 76 68 98 89 89 89 80 58 34 26 354 11 5 17 50 343 20 356 40 9 10 13 14 10
70 65 64 64 63 60 56 55 58 48 55 64 59 59 60 67 81 89 91 88 77 64 55 79 86 67 61 30 5 11 20 353 17 27 354 356 2 42 12 9 16 15 13
73 72 68 64 65 56 56 54 52 52 57 61 71 71 86 73 72 106 97 93 92 86 75 70 65 70 59 37 31 25 346 290 200 71 12 334 6 356 346 14 18 18 14
80 74 69 67 62 57 52 56 69 74 72 70 73 65 75 74 32 21 97 99 90 75 94 73 78 72 61 34 357 22 16 9 13 46 28 325 356 348 358 24 15 18 13
82 78 70 60 55 57 48 46 51 94 91 88 79 75 55 58 43 38 77 87 80 50 61 99 102 117 139 81 42 30 13 13 16 353 7 337 353 358 57 34 21 15 12